Location: Brachbach
(49.1847°N, 9.7240°E)
Time: 17:06:29
(UTC+00:00)

Meteor 2-5 Rocket - Pass Details

Date: 16 August 2024
Orbit: 833 x 910 km, 81.2° (Epoch: 07 September)

Event Time Altitude Azimuth Distance (km) Brightness Sun altitude
Rises 01:47:01 0° 346° (NNW) 3,475 7.5 -19.9°
Reaches altitude 10° 01:49:27 10° 345° (NNW) 2,545 6.7 -19.6°
Maximum altitude 01:55:14 77° 261° (W) 920 3.7 -19.0°
Enters shadow 01:59:08 22° 179° (S) 1,848 5.0 -18.6°
